ONEWEB-0309, 49095

Orbit data source: Space-Track

ONEWEB-0309, 49095 is a payload satellite owned by One Web (NAA) (UK) in LEO that was launched on Sat, 21 Aug 2021 UTC via a SOYUZ-2-1B launch vehicle from the Tyuratam Missile And Space Complex (TTMTR). Payload-class satellites include a variety of spacecraft equipped with specific instruments for various scientific and technological missions. These include communications satellites like Starlink; space stations such as the ISS; scientific satellites like the Hubble; Earth observation satellites from companies like Planet Labs, Umbra, and HawkEye 360; GPS; miniature CubeSats for education and research; and military/defense satellites.

Loading next visibility...
Identifier
49095, 2021-075W
Orbit
LEO
Country
Flag of UKUK
Related business
Manufacturer
One Web
Mission
Operational Commercial Communications
Bus & Motor
ARROW, Unknown motor
Mass
148 kg wet, ~140 kg dry
Launch date (UTC)
2021-08-21 (5 years ago)
Launch vehicle
SOYUZ-2-1B
Launch site
Tyuratam Missile And Space Complex (TTMTR)
Object type
Payload
Rocket body
Debris
Shape & HBR
Trap Box + 2 Pan, 6.7 m
Radar Cross Section
3.464 m², Large (>1 m²)

Expand to show TLE details & history
Last TLE update: 21 hours ago

TLE from 21 hours ago
0 ONEWEB-0309
1 49095U 21075W   26175.22703163  .00000017  00000-0  10351-4 0  9999
2 49095  87.9133   4.4621 0002128 101.2974 258.8397 13.17648943234506
Epoch: 2026-06-24T05:26Z
TLE epoch observation values (Epoch: 2026-06-24T05:26:55.532Z)
Latitude
-0.00002°
Longitude
10.34344°
Altitude
1,196.924 km
Speed
7.255 km/s
True Right ascension
00h 17m 50s
True Declination
0° 00' 00"
Sunlit
Object was in daylight at epoch
Visualization orbit readout
Latitude
Unknown
Longitude
Unknown
Altitude
Unknown
Speed
Unknown
Apparent Right ascension
Unknown
Apparent Declination
Unknown
Sunlit
N/A
Visualization observer readout
Local Sidereal Time
13:56:19
Azimuth
Unknown
Elevation
Unknown
Doppler factor
Unknown
Orbital elements
Apogee altitude
1,192.433 km
Perigee altitude
1,189.212 km
Semi-major axis
7,568.959 km
Eccentricity
0.00021
Inclination
87.9133°
RAAN
4.4621°
Arg. of periapsis
101.2974°
True anomaly
258.81578°
Mean anomaly
258.8397°
Eccentric anomaly
258.82774°
Mean motion
3.29601 °/min
Orbital period
109.22 mins
BSTAR
0.000010351
Loading maneuver chart data...
Computing Atmospheric mass density...
Loading historical data...
Loading historical data...
Loading historical data...
Loading historical data...
Loading historical data...
Loading historical data...
Loading historical data...

Documentation

Showing up to 5 results
|